Retour au catalogue

FENGYUN 1C DEB

ActifSSO
NORAD 31191·DEBRIS·🇨🇳 China

Lancé May 10, 1999 depuis Taiyuan Satellite Launch Center

Loading…

Prochains Passages (prochaines 24 heures)

TLE

FraisSource: Space-Track

Époque: Sep 14, 2026, 13:26 UTC

1 31191U 99025BJV 26257.55982662  .00000675  00000-0  21219-3 0  9991
2 31191  98.7659 170.7710 0093196  93.7793 267.4057 14.41370483 19657

Suivez FENGYUN 1C DEB en temps réel avec AllMySat

Download on the App Store